Address 0xa16f524a804beaed0d791de0aa0b5836295a2a84 1

Txn Hash Method
Block
From
To
Value [Txn Fee]
0xa80a7139150acb628d7db4868dbb2b725921baeda1abb77fcb85228d4d686f0cTransfer149085942022-05-19 17:19:5429 mins ago0xa16f524a804beaed0d791de0aa0b5836295a2a84OUT0x0ed23eb7be8f034c6618c179913224c04bfaf9dd221 AVAX0.004179199
0x573a3efdfaf53a3112c42aa49c782663a5bfb4d716b207407ead876f566be231Transfer149085432022-05-19 17:18:1531 mins ago0xa16f524a804beaed0d791de0aa0b5836295a2a84OUT0xecccc054f6c2350e73c5c82b83b90e07bcae03390.121 AVAX0.004179199
0xb434f97fe79109c07fe72b44bae6f1a22e4960eb6f992f944c95b3e0729ed842Transfer149083862022-05-19 17:13:0236 mins ago0xa16f524a804beaed0d791de0aa0b5836295a2a84OUT0xf8c83537366f35c94cbaf5f4fc63bb3a092fa94c0.404 AVAX0.004179199
0x3636682b9cb96a57e85f4da43b340e441299fa1ad53d6287d29777ef60253e82Transfer149082992022-05-19 17:10:1239 mins ago0xa16f524a804beaed0d791de0aa0b5836295a2a84OUT0x3fb8b58c579e7e1ff20355076716fe2d2da55e1a6.524 AVAX0.004179199
0x7d41c370376b31bf8a14812368a0f110608ae06911ddf25d0b39ed996f14d499Transfer149082592022-05-19 17:08:5240 mins ago0xa16f524a804beaed0d791de0aa0b5836295a2a84OUT0xb8da709468b45ceb17dbf91fd624b550d7d941d82.338 AVAX0.004179199
0x496e615f12097479eeb12078668c20f3a29c1f91ede3c6f72f1ffe4dd9584e1dTransfer149082442022-05-19 17:08:2240 mins ago0xa16f524a804beaed0d791de0aa0b5836295a2a84OUT0xaa496bc3aca98828f59f9666f62d73db4a73f67c5.306 AVAX0.004179199
0x19d4f0ada8cfef1a083b83c4fa39cef5bc2c8894f8de52ab2c1743ff7a369827Transfer149078312022-05-19 16:54:4154 mins ago0xa16f524a804beaed0d791de0aa0b5836295a2a84OUT0x874d1b96e009ccaa25bb258d8ce102f2e6be29e30.119 AVAX0.004179199
0x4cc878e5fbc7d2ebf173f3676e3f6cb3acbe4909884f4966e4bffe05a4989fcbTransfer149077952022-05-19 16:53:2955 mins ago0xa16f524a804beaed0d791de0aa0b5836295a2a84OUT0x1462aae9cc7560e70e95ffd65c57f10fe7eabb520.116 AVAX0.004179199
0x7f614c83524aae3d7b2c83c7de4690abfbae69c73718beaba4085fe98c25ac39Transfer149077502022-05-19 16:51:5857 mins ago0x3bf64047dd2fba18408c42cd4a2d90517f54632a IN 0xa16f524a804beaed0d791de0aa0b5836295a2a843.495821 AVAX0.004179199
0x0ef59602381d9adba8d6d2d81cc53cc8729829b944dbcb5bdc60e0193f5d8cbbTransfer149077492022-05-19 16:51:5557 mins ago0xd1305fbda97c035f86fdaa7785fb568c203174e1 IN 0xa16f524a804beaed0d791de0aa0b5836295a2a84264.996051 AVAX0.004179199
0x3894b3d917fca4b02c74e8fc818d657efcd9660b312572e766026eb5b812699fTransfer149077492022-05-19 16:51:5557 mins ago0x647244fa448709ff18b95228385640f84b5a2270 IN 0xa16f524a804beaed0d791de0aa0b5836295a2a84749.9958209999999 AVAX0.004179199
0xa0038102aeac04a23bde18051ea72021f1c1d58fa52dec5c1fb0c3aafc1c6549Transfer149077492022-05-19 16:51:5557 mins ago0xac7821e6eea41c4c8b38fb93b1641f2f61cb11b1 IN 0xa16f524a804beaed0d791de0aa0b5836295a2a8428.654246002393904 AVAX0.004179199
0x142e519be73609642528de6c008ccbcc255805d3dbbcee6d36ff9fa12987a44aTransfer149077492022-05-19 16:51:5557 mins ago0x4210401a85da6931b6016ad8cd3f33329cacfae9 IN 0xa16f524a804beaed0d791de0aa0b5836295a2a84190.8502729 AVAX0.004179199
0x10413bbd6083f11c34af613064dda67dfa29b7caaa8ffe44afbe008af3e59be2Transfer149077492022-05-19 16:51:5557 mins ago0x36bd825fd3cc734df786289e861cd25a2e6b2427 IN 0xa16f524a804beaed0d791de0aa0b5836295a2a84999.995821 AVAX0.004179199
0x1984a3f26858134c95d6a2f8f443d4162b2135b0cbb26912a587cdb4a42b577aTransfer149076562022-05-19 16:48:461 hr ago0xa16f524a804beaed0d791de0aa0b5836295a2a84OUT0x4aed2caab8c760645e674729b304c69ebbd6cc521 AVAX0.004179199
0xb5a4688ec32964b97aa258a684c46be561c0151d1fba8544150b33bc8aa13d09Transfer149076512022-05-19 16:48:361 hr ago0xa16f524a804beaed0d791de0aa0b5836295a2a84OUT0xdc19e889fc9a00073144f95aff8a6572a42356830.212 AVAX0.004179199
0xf8133372828fd4c0c5e8b115831f95366014e4ac0d391b69d3d873cab36a572fTransfer149075912022-05-19 16:46:371 hr 2 mins ago0xa16f524a804beaed0d791de0aa0b5836295a2a84OUT0x21fa6639a9fafaafa38c7917671136f4c940695a1.575 AVAX0.004179199
0xda9c3b12e9a3ac52f8c3450b46609135a6a062313d863a7c1fa17445d3ab1721Transfer149070242022-05-19 16:27:421 hr 21 mins ago0xa16f524a804beaed0d791de0aa0b5836295a2a84OUT0x0ed23eb7be8f034c6618c179913224c04bfaf9dd332 AVAX0.004179199
0x769ab65e42ea7ee9ee49756cd3ed8ac606e0f6d736ffa48e891b8cc1abcdae8dTransfer149067572022-05-19 16:18:511 hr 30 mins ago0xa16f524a804beaed0d791de0aa0b5836295a2a84OUT0x007e4195a6c8f68801c0673ec561c38fed803021992 AVAX0.004179199
0xbce02e4873718dec7da6363dd3cfdc306d523ac9ffed6078ef36370d86141a73Transfer149067532022-05-19 16:18:421 hr 30 mins ago0xa16f524a804beaed0d791de0aa0b5836295a2a84OUT0xc8bba1829bcf952a68bbf8bee61b1d245ae427cf6.323 AVAX0.004179199
0x13f29ab2a64f76670362550c8484b2261acc753f7b3700e9e1e3cf9a2bbb09a1Transfer149066912022-05-19 16:16:401 hr 32 mins ago0xa16f524a804beaed0d791de0aa0b5836295a2a84OUT0x69ec26c857117e497766bfb8994316a42986c29a82.449 AVAX0.004179199
0x08e44b2ad53a5e61b89266df6b20c83ff41a9a1cd1d1986bd6f66b5f72240997Transfer149066612022-05-19 16:15:411 hr 33 mins ago0xa16f524a804beaed0d791de0aa0b5836295a2a84OUT0x8b7f6cd2e32bdffbca97042045b78b00948ea71e2.526 AVAX0.004179199
0xe818383359214db710f5bc5c7e5d7b306856d1c773dff6c55662dc3cd5a7b55bTransfer149065862022-05-19 16:13:111 hr 36 mins ago0xa16f524a804beaed0d791de0aa0b5836295a2a84OUT0xa88a1dc203e8b98a31c5a3369d1de79d728a63270.1 AVAX0.004179199
0xe74143a82a6322f3144ff3d6f2d157b211ffb6e8c57034e328b9edf74629ab7dTransfer149065202022-05-19 16:10:591 hr 38 mins ago0xa16f524a804beaed0d791de0aa0b5836295a2a84OUT0xa88673ad4338c12d1971922785a900a5d5ab023d0.152 AVAX0.004179199
0x7d00dd7de87b61e5de07648111526f323b8386c6c506b7ecb2d9eaf7548525f2Transfer149062732022-05-19 16:03:071 hr 46 mins ago0xa16f524a804beaed0d791de0aa0b5836295a2a84OUT0x8200964b61c82c4307407ad761234d1ec3658a09577.929 AVAX0.004179199
[ Download CSV Export 
Parent Txn Hash Block From To Value
Loading

Contract Name:
0

Compiler Version
0

Optimization Enabled:
0

Other Settings:
-NA-
Block Transaction Gas Used Reward
Age Block Fee Address BC Fee Address Voting Power Jailed Incoming
Block Uncle Number Difficulty Gas Used Reward
Loading
Make sure to use the "Vote Down" button for any spammy posts, and the "Vote Up" for interesting conversations.